Location: Oriwa
(40.7500°S, 175.3333°E)
Time: 12:03:21
(UTC+00:00)

Cosmos 1378 Rocket - Pass Details

Date: 03 February 2023
Orbit: 600 x 625 km, 82.5° (Epoch: 30 March)

Event Time Altitude Azimuth Distance (km) Brightness Sun altitude
Exits shadow 16:14:37 11° 348° (NNW) 1,868 5.6 -13.1°
Maximum altitude 16:18:44 77° 262° (W) 637 3.5 -12.4°
Drops below altitude 10° 16:23:09 10° 175° (S) 1,999 6.7 -11.7°
Sets 16:25:25 0° 173° (S) 2,916 7.7 -11.4°
